Location: Newark
(44.9000°N, 9.6000°E)
Time: 01:30:54
(UTC+00:00)

ISS - Pass Details

Date: 21 January 2020
Orbit: 415 x 422 km, 51.6° (Epoch: 22 February)

Event Time Altitude Azimuth Distance (km) Brightness Sun altitude
Rises 18:04:46 0° 227° (SW) 2,367 1.0 -19.4°
Reaches altitude 10° 18:06:53 10° 222° (SW) 1,504 -0.2 -19.8°
Enters shadow 18:09:49 50° 173° (S) 543 -3.3 -20.3°
